パンスターズ彗星

C/2019 B3 ( PanSTARRS )

English version
Home page
Updated on July 8, 2020

---------------------------------------------------------------------

・ プロフィール

発見日 2019年1月24日
発見光度 19.6等
発見者 Pan-STARRS 1 telescope (Haleakala)

・ 写真集

・ 軌道要素

Epoch 2021 Jan. 26.0 TT = JDT 2459240.5
T 2021 Jan. 20.05693 TT                                 Rudenko
q   6.8229152            (2000.0)            P               Q
z  -0.0003709      Peri.  263.91459     -0.11683038     +0.99283314
 +/-0.0000034      Node   358.42831     +0.00237939     -0.02505337
e   1.0025307      Incl.   66.53622     -0.99314903     -0.11685324
From 96 observations 2019 Jan. 24-2020 May 21, mean residual 0".6.

・ 光度変化

        m1 = 5.5 + 5 logΔ + 10.0 log r

---------------------------------------------------------------------

軌道要素はM.P.E.C. 2020-M114に掲載されたものです。
光度グラフはComet for Windowsで作成したものです。

---------------------------------------------------------------------

Copyright(C) Seiichi Yoshida (comet@aerith.net). All rights reserved.